Flag for San Marino Weather past 2 weeks in San Marino, San Marino

Now
54 °F

Partly sunny.


Feels Like: 53 °F
Forecast: 48 / 59 °F
Wind: 5 mph from Southeast

Location: Rimini Airport


UV Index: 5 (Moderate)

Visibility: N/A


Pressure: 29.68 "Hg

Humidity: 94%

Dew point: 52 °F

Location of San MarinoLocation

Historic Weather in San Marino

°F

San Marino temperature yesterday

Maximum temperature yesterday: 61 °F (at 11:45 AM)
Minimum temperature yesterday: 46 °F (at 1:15 AM)
Average temperature yesterday: 54 °F

Past Weeks' High & Low Weather Summary

 TemperatureHumidityPressure
High70 °F (Apr 14, 6:15 PM)100% (Apr 8, 7:45 AM)30.12 "Hg (Apr 8, 7:45 AM)
Low41 °F (Apr 10, 6:15 AM)36% (Apr 16, 5:15 PM)29.65 "Hg (Apr 19, 2:15 AM)
Average55 °F76%29.96 "Hg
* Reported Apr 6 6:15 AM — Apr 21 6:45 AM, San Marino, Weather by CustomWeather, © 2014

Note: Actual official high and low records may vary slightly from our data, if they occured in-between our weather recording intervals... More about our weather records

Advertising

Historic Weather Conditions — Data for Previous 24 hours

 ConditionsComfort  
Time TempWeatherWind HumidityBarometerVisibility
6:45 AM
Apr 21
54 °FPassing clouds.2 mph94%29.68 "HgN/A
6:15 AM54 °FPassing clouds.3 mph94%29.68 "HgN/A
5:45 AM54 °FPassing clouds.2 mph94%29.68 "HgN/A
5:15 AM54 °FPassing clouds.3 mph94%29.68 "HgN/A
4:45 AM54 °FPassing clouds.5 mph94%29.71 "HgN/A
4:15 AM55 °FPassing clouds.3 mph88%29.71 "HgN/A
3:45 AM54 °FPassing clouds.7 mph94%29.71 "HgN/A
3:15 AM54 °FPassing clouds.6 mph94%29.71 "HgN/A
2:45 AM54 °FPassing clouds.2 mph94%29.71 "HgN/A
2:15 AM54 °FPassing clouds.2 mph94%29.71 "HgN/A
1:15 AM54 °FPassing clouds.5 mph94%29.74 "HgN/A
12:45 AM54 °FPassing clouds.3 mph88%29.74 "HgN/A
12:15 AM54 °FPassing clouds.2 mph88%29.74 "HgN/A
11:45 PM
Apr 20
52 °FPassing clouds.3 mph94%29.74 "HgN/A
10:45 PM54 °FPassing clouds.2 mph94%29.74 "HgN/A
10:15 PM55 °FPassing clouds.6 mph82%29.74 "HgN/A
9:45 PM55 °FPassing clouds.6 mph82%29.74 "HgN/A
9:15 PM55 °FPassing clouds.5 mph82%29.74 "HgN/A
8:45 PM57 °FScattered clouds.7 mph77%29.71 "HgN/A
8:15 PM57 °FScattered clouds.7 mph77%29.71 "HgN/A
7:45 PM57 °FScattered clouds.7 mph77%29.71 "HgN/A
7:15 PM57 °FScattered clouds.6 mph82%29.71 "HgN/A
6:45 PM57 °FScattered clouds.9 mph82%29.71 "HgN/A
6:15 PM57 °FPassing clouds.10 mph82%29.71 "HgN/A
5:45 PM57 °FPassing clouds.9 mph88%29.71 "HgN/A
5:15 PM57 °FPassing clouds.9 mph88%29.71 "HgN/A
4:45 PM57 °FPassing clouds.9 mph88%29.71 "HgN/A
4:15 PM57 °FPassing clouds.10 mph88%29.71 "HgN/A
3:45 PM59 °FPassing clouds.9 mph88%29.74 "HgN/A
3:15 PM59 °FPassing clouds.8 mph82%29.74 "HgN/A
2:45 PM59 °FPassing clouds.7 mph82%29.74 "HgN/A
2:15 PM59 °FPassing clouds.8 mph77%29.74 "HgN/A
1:45 PM59 °FPassing clouds.7 mph77%29.74 "HgN/A
1:15 PM59 °FScattered clouds.7 mph77%29.74 "HgN/A
12:45 PM59 °FScattered clouds.8 mph77%29.74 "HgN/A
12:15 PM61 °FScattered clouds.7 mph72%29.74 "HgN/A
11:45 AM61 °FScattered clouds.7 mph68%29.74 "HgN/A
11:15 AM59 °FScattered clouds.3 mph68%29.71 "HgN/A
10:45 AM57 °FScattered clouds.3 mph72%29.71 "HgN/A
10:15 AM57 °FScattered clouds.3 mph77%29.71 "HgN/A
9:45 AM57 °FPassing clouds.5 mph77%29.71 "HgN/A
9:15 AM55 °FPassing clouds.7 mph82%29.71 "HgN/A
8:45 AM54 °FPassing clouds.7 mph88%29.71 "HgN/A
8:15 AM52 °FPassing clouds.6 mph94%29.71 "HgN/A
Weather by CustomWeather, © 2014

See weather overview